TITAN 3C TRANSTAGE DEB, 1964

Orbit data source: Space-Track

TITAN 3C TRANSTAGE DEB, 1964 is space debris in LEO originally from a launch on Fri, 15 Oct 1965 UTC launched from the Air Force Eastern Test Range (AFETR). Debris objects in space refer to the collection of defunct objects orbiting the Earth. Examples of debris include non-operational satellites, rocket bodies, and fragments generated from explosions, collisions, or faulty payload assembly.

Loading next visibility...
Identifier
1964, 1965-082GZ
Orbit
LEO
Country
Flag of USUS
Related business
Manufacturer
Unknown
Mission
Spacecraft
Bus & Motor
Unknown
Mass
Unknown
Launch date (UTC)
1965-10-15 (60 years ago)
Launch vehicle
Unknown
Launch site
Air Force Eastern Test Range (AFETR)
Object type
Payload
Rocket body
Debris
Shape & HBR
Unknown shape, 0.1 m
Radar Cross Section
Small (<0.1 m²)

Expand to show TLE details & history
Last TLE update: 10 hours ago

TLE from 10 hours ago
0 TITAN 3C TRANSTAGE DEB
1  1964U 65082GZ  25310.67556448  .00001290  00000-0  44356-3 0  9994
2  1964  32.1981 306.9108 0176958 123.4460 238.3230 14.25742690 85867
Epoch: 2025-11-06T16:12Z
TLE epoch observation values (Epoch: 2025-11-06T16:12:48.771Z)
Latitude
-0.00001°
Longitude
17.5771°
Altitude
873.025 km
Speed
7.383 km/s
True Right ascension
20h 27m 38s
True Declination
0° 00' 00"
Sunlit
Object was in daylight at epoch
Visualization orbit readout
Latitude
Unknown
Longitude
Unknown
Altitude
Unknown
Speed
Unknown
Apparent Right ascension
Unknown
Apparent Declination
Unknown
Sunlit
N/A
Visualization observer readout
Local Sidereal Time
22:48:00
Azimuth
Unknown
Elevation
Unknown
Doppler factor
Unknown
Orbital elements
Apogee altitude
936.715 km
Perigee altitude
682.332 km
Semi-major axis
7,187.661 km
Eccentricity
0.0177
Inclination
32.1981°
RAAN
306.9108°
Arg. of periapsis
123.446°
True anomaly
236.61738°
Mean anomaly
238.323°
Eccentric anomaly
237.46819°
Mean motion
3.56174 °/min
Orbital period
101.07 mins
BSTAR
0.00044356

Documentation

Showing up to 5 results
|